SCP
0 0 0 0 0 0 0 0 0 0 0 0 0 0 0 0 0 0 0 0 0 0 0 0 0 0 0 0 0 0 0 0 0 0 0 0 0 0 0 0 0 0 0 0 0 0 0 0 0 0 0 0 0 0
0 0 0 0 0 0 0 0 0 0 0 0 0 0 0 0 0 0 0 0 0 0 0 0 0 0 0 0 0 0 0 0 0 0 0 0 0 0 0 0 0 0 0 0 0 0 0 0 0 0 0 0 0 0
0 0 0 0 0 0 0 0 0 0 0 0 0 0 0 0 0 0 0 0 0 0 0 0 0 0 0 0 0 0 0 0 0 0 0 0 0 0 0 0 0 0 0 0 0 0 0 0 -0 0 0 0 0 0
0 0 0 0 0 0 0 0 0 0 0 0 0 0 0 0 0 0 0 0 0 0 0 0 0 0 0 0 0 0 0 0 0 0 0 0 0 0 0 0 0 0 0 0 0 0 0 0 0 0 0 0 0 0
0 0 0 0 0 0 0 0 0 0 0 0 0 0 0 0 0 0 0 0 0 0 0 0 0 0 0 0 0 0 0 0 0 0 0 0 0 0 0 0 0 0 0 0 0 0 0 0 0 0 0 0 0 0
0 0 0 0 0 0 0 0 0 0 0 0 0 0 0 0 0 0 0 0 0 0 0 -0 0 0 0 0 0 0 0 0 0 0 0 0 0 0 0 0 0 0 0 0 0 0 0 0 0 0 0 0 0 0
0 0 0 0 0 0 0 0 0 0 0 0 0 0 0 0 0 0 0 0 0 0 0 0 0 0 0 0 0 0 0 0 0 0 0 0 0 0 0 0 0 0 0 0 0 0 0 0 0 0 0 0 0 0
0 0 0 0 0 0 0 0 0 0 0 0 0 0 0 0 0 0 0 0 0 0 0 0 0 0 0 0 0 0 0 0 0 0 0 0 0 0 0 0 0 0 0 0 0 0 0 0 0 0 0 0 0 0
0 0 0 0 0 0 0 0 0 0 0 0 0 0 0 0 0 0 0 0 0 0 0 0 0 0 0 0 0 0 0 0 0 0 0 0 0 0 0 0 0 0 0 0 0 0 0 0 0 0 0 0 0 0
0 0 0 0 0 0 0 0 0 0 0 -0 0 0 0 0 0 0 0 0 0 -0 0 0 0 0 0 0 0 0 0 0 0 0 0 0 0 0 0 0 0 0 0 0 0 0 0 0 0 0 0 0 0 0
0 0 0 0 0 0 0 0 0 0 0 0 0 0 0 0 0 0 0 0 0 0 0 0 0 0 0 0 0 0 0 0 0 0 0 0 0 0 0 0 0 0 0 0 0 0 0 0 0 0 0 0 0 0
0 0 0 0 0 0 0 0 0 0 -0 0 0 0 0 0 0 0 0 0 0 0 0 0 0 0 0 0 0 0 0 0 0 0 0 0 0 0 0 0 0 0 0 0 0 0 0 0 0 0 0 0 0 0
0 0 0 0 0 0 0 0 0 0 0 0 0 0 0 0 0 0 0 0 0 0 0 0 0 0 0 0 0 0 0 0 0 0 0 0 0 0 0 0 0 0 0 0 0 0 0 0 -0 -0 0 0 0 0
0 0 0 0 0 0 0 0 0 0 0 0 0 0 0 0 0 0 0 0 0 0 0 0 0 0 0 0 0 0 0 0 0 0 0 0 0 0 0 0 0 0 0 0 0 0 -0 -0 0 0 0 0 0 0
0 0 0 0 0 0 0 0 0 0 0 0 0 0 0 0 0 0 0 0 0 0 0 0 0 0 0 0 0 0 0 0 0 0 0 0 0 0 0 0 0 0 0 0 0 0 -0 -0 0 0 0 0 0 0
0 0 0 0 0 0 0 0 0 0 0 0 0 0 0 0 0 0 0 0 0 0 0 0 0 0 0 0 0 0 0 0 0 0 0 0 0 0 0 0 0 0 0 0 0 0 0 0 0 0 0 0 0 0
0 0 0 0 0 0 0 0 0 0 0 0 0 0 0 0 0 0 0 0 0 0 0 0 0 0 0 0 0 0 0 0 0 0 0 0 0 0 0 0 0 0 0 0 0 0 0 0 0 0 0 0 0 0
0 0 0 0 0 0 0 0 0 0 0 0 0 0 0 0 0 0 0 0 0 0 0 0 0 0 0 0 0 0 0 0 0 0 0 0 0 0 0 0 0 0 0 0 0 0 0 0 0 0 0 0 0 0
0 0 0 0 0 0 0 0 0 0 0 0 0 0 0 0 0 0 0 0 0 0 0 0 0 0 0 0 0 0 0 0 0 0 0 0 0 0 -0 -0 -0 0 0 0 0 0 0 0 0 0 0 0 0 0
0 0 0 0 0 0 0 0 0 0 0 0 0 0 0 0 0 0 0 0 0 0 0 0 0 0 0 0 0 0 0 0 0 0 0 0 0 0 -0 0 0 0 -0 -0 -0 -0 0 0 0 0 0 0 0 0
-0 0 0 0 0 0 0 0 0 0 0 0 0 0 0 0 0 0 0 0 0 0 0 0 0 0 0 0 0 0 0 0 -0 -0 -0 -0 -0 -0 0 0 0 0 0 0 0 0 0 0 0 0 0 0 0 0
0 -0 0 0 0 0 0 0 0 0 0 0 0 0 0 0 0 0 0 0 0 0 0 0 0 0 0 0 0 0 0 0 0 0 -0 -0 -0 -0 -0 -0 0 0 0 0 0 0 0 0 0 0 0 0 0 0
-0 -0 -0 0 0 0 0 0 0 0 0 0 0 0 0 0 0 0 0 0 0 0 0 0 0 0 0 0 0 0 0 0 0 -0 -0 -0 -0 -0 -0 -0 -0 -0 0 -0 0 0 0 0 0 0 0 0 0 0
-0 0 0 0 0 -0 0 0 0 0 0 0 0 0 0 0 0 0 0 0 0 0 0 0 0 0 0 0 0 0 0 0 0 0 0 0 -0 -0 0 -0 -0 -0 -0 0 0 0 0 0 0 0 0 0 0 0
0 0 0 -0 -0 -0 -0 -0 0 0 0 0 0 0 0 0 0 0 0 0 0 0 0 0 0 0 0 0 0 0 0 0 0 0 0 0 0 0 0 0 -0 -0 0 0 0 0 0 0 0 0 0 0 0 0
0 0 0 -0 -0 -0 -0 -0 -0 -0 0 0 0 0 0 0 0 0 0 0 0 0 0 0 0 0 0 0 0 0 0 0 0 0 0 0 0 0 0 -0 0 0 0 0 0 0 0 0 0 0 0 0 0 0
0 0 0 0 0 -0 -0 -0 0 -0 -0 -0 0 0 -0 -0 0 -0 -0 0 -0 0 0 0 0 0 0 0 0 0 0 0 0 0 0 0 0 0 0 0 -0 0 0 0 0 0 0 0 0 0 0 0 0 0
0 0 0 0 -0 -0 0 0 -0 0 0 -0 -0 -0 -0 -0 -0 -0 -0 -0 -0 -0 -0 -0 -0 -0 -0 -0 -0 -0 -0 -0 -0 -0 -0 -0 0 0 0 0 0 0 0 0 0 0 0 0 0 0 0 0 0 0
0 0 0 0 0 -0 -0 0 0 0 0 0 0 0 -0 -0 0 -0 -0 -0 -0 -0 -0 -0 -0 -0 -0 -0 -0 -0 -0 -0 -0 -0 -0 -0 -0 -0 0 0 0 0 0 0 0 0 0 0 0 0 0 0 0 0
0 0 0 0 0 0 0 0 0 -0 -0 -0 -0 -0 -0 -0 -0 -0 -0 0 0 0 0 0 0 -0 -0 -0 -0 -0 -0 -0 -0 -0 0 -0 0 0 0 0 0 0 0 0 0 0 0 0 0 0 0 0 0 0
0 0 0 0 0 0 0 0 0 0 -0 -0 0 0 0 0 0 0 0 0 0 0 0 -0 -0 -0 -0 -0 -0 -0 -0 -0 -0 0 0 0 0 0 0 0 0 0 0 0 0 0 0 0 0 0 0 0 0 0
0 0 0 0 0 0 0 0 0 0 0 0 0 0 0 0 0 0 0 0 0 0 0 0 0 0 0 -0 -0 -0 -0 0 0 0 0 0 0 0 -0 -0 -0 -0 0 0 0 0 0 0 0 0 0 0 0 0
0 0 0 0 0 0 0 0 0 0 0 0 0 0 0 0 0 0 0 0 0 0 0 0 0 0 0 0 0 0 0 0 0 0 0 0 0 0 0 0 0 0 0 0 0 0 0 0 0 0 0 0 0 0
Wind_Speed_500mb
52 50 50 47 42 40 39 36 32 29 33 39 51 49 48 43 41 48 41 29 48 10 31 43 68 42 37 49 13 31 17 7 5 10 10 9 8 15 6 9 15 16 17 9 6 4 17 34 16 16 8 9 20 31
51 51 48 48 46 45 42 37 34 31 30 32 46 46 47 47 43 37 48 46 43 35 13 20 54 77 78 79 58 65 19 26 33 9 8 5 4 4 9 9 3 9 15 14 22 17 3 70 16 48 8 13 23 30
48 48 45 43 42 38 36 36 32 31 32 31 39 47 44 47 44 46 28 39 38 28 43 51 42 74 78 67 71 38 23 38 32 26 17 3 10 8 11 12 5 11 15 6 6 14 35 39 69 33 41 25 25 26
47 46 43 41 39 36 31 27 25 27 28 32 30 37 38 52 55 55 52 30 37 13 9 15 36 65 61 83 72 85 68 64 40 37 8 6 6 26 7 5 12 13 30 14 11 26 29 41 63 61 59 43 37 31
45 46 39 34 30 29 27 27 28 27 25 30 29 34 47 43 50 47 43 51 47 20 7 5 8 42 61 65 74 78 75 58 51 20 8 9 10 8 3 2 9 27 16 14 14 46 29 42 51 56 69 68 64 54
47 45 42 36 36 30 26 25 25 28 24 30 31 21 25 36 45 35 16 56 55 56 14 6 12 26 48 56 66 69 69 63 43 23 12 12 12 20 9 13 15 68 56 58 22 52 36 45 34 45 50 51 52 50
46 47 44 36 32 31 28 25 26 25 24 30 28 23 25 31 35 44 16 12 29 67 12 6 7 15 28 36 31 43 57 30 30 24 24 15 20 28 4 29 23 59 62 73 67 57 34 44 33 33 28 24 29 35
39 39 37 35 35 35 33 29 29 27 29 30 29 21 22 36 36 58 54 9 29 64 19 6 5 10 29 14 12 28 24 28 21 20 15 11 18 8 12 15 43 49 49 69 76 79 75 51 54 36 36 33 34 42
27 28 29 32 35 36 36 33 33 27 34 30 27 26 33 28 26 39 49 59 39 29 16 10 12 10 33 14 16 18 19 5 16 8 11 25 8 14 16 24 32 45 70 68 61 70 82 90 89 61 56 55 56 60
33 36 34 35 39 39 36 36 34 27 31 32 22 17 11 12 25 34 36 19 21 15 19 6 12 10 28 20 11 15 16 6 8 10 25 8 9 57 33 29 28 41 56 70 78 75 79 89 99 99 91 74 59 50
23 26 32 34 35 38 37 38 31 28 29 25 20 16 18 16 27 20 13 20 17 5 16 14 15 11 26 8 7 14 7 8 7 8 12 8 8 5 19 38 39 42 51 63 75 82 91 94 94 83 76 71 74 68
16 20 24 29 32 32 32 36 33 36 38 26 13 23 19 12 10 9 6 1 6 11 12 10 14 14 21 17 7 12 8 6 9 17 7 6 2 29 34 18 26 35 44 52 65 72 80 80 78 73 75 77 62 48
19 22 23 25 26 31 33 32 36 37 35 37 13 10 7 3 5 6 4 2 0 1 14 15 7 19 16 17 6 7 12 10 22 7 8 2 17 39 41 33 21 22 26 32 45 47 42 49 57 63 62 59 58 58
9 16 22 25 27 26 29 32 36 50 21 8 10 6 5 5 5 6 7 4 7 12 10 21 9 5 8 7 6 9 4 6 8 10 6 3 33 40 39 37 32 28 28 28 34 38 40 44 53 57 62 65 68 67
4 11 14 18 18 25 27 45 35 38 8 6 8 6 4 4 6 3 1 5 6 9 10 7 9 4 2 5 2 6 4 5 4 5 3 19 29 33 35 37 35 32 30 28 30 32 34 36 35 33 37 39 42 44
3 4 12 21 24 29 40 32 26 17 8 5 6 8 5 6 4 5 6 8 5 6 6 6 3 4 4 1 4 9 7 5 1 4 5 20 32 34 39 37 35 33 30 29 28 27 26 25 22 15 14 19 23 26
10 2 3 30 33 34 31 34 11 8 6 5 6 14 10 9 8 6 7 8 8 7 2 5 7 2 5 6 6 4 4 4 11 6 15 23 31 34 41 39 37 33 30 28 27 26 25 22 21 20 16 14 16 21
22 13 6 13 37 36 31 12 9 7 8 6 4 10 9 12 13 12 7 5 7 4 6 5 7 7 5 6 3 3 11 9 8 6 14 15 15 27 32 34 34 33 30 27 26 25 24 23 23 22 22 21 20 21
21 18 16 12 16 14 8 7 6 7 6 9 11 14 10 13 17 11 10 9 10 11 16 3 7 4 4 2 5 7 2 4 5 11 5 4 20 22 22 21 22 23 26 29 28 28 27 26 25 23 24 24 22 20
24 25 24 18 15 6 6 7 5 5 5 4 10 12 15 12 9 8 4 6 9 6 8 5 3 5 4 9 9 9 3 8 15 12 2 13 22 26 28 29 28 27 26 23 25 23 21 19 20 21 20 19 18 19
41 38 27 21 7 9 8 5 8 8 9 7 12 6 9 9 8 6 6 8 5 9 3 6 13 17 16 12 8 3 3 9 15 19 21 25 22 25 25 27 26 25 26 29 29 28 28 29 28 26 23 21 20 19
47 37 28 14 6 6 9 8 8 7 5 9 8 8 8 6 10 8 9 7 10 7 8 14 16 13 11 7 2 4 6 8 11 15 20 21 16 16 22 25 26 29 28 26 26 25 25 27 25 24 22 18 16 16
38 26 12 3 3 5 4 3 3 7 7 3 2 8 8 6 8 4 9 6 5 6 9 11 11 12 12 10 9 6 4 7 8 10 12 13 12 14 15 17 23 28 23 18 19 23 24 21 21 21 18 15 12 13
23 9 3 6 9 2 3 8 7 7 8 7 5 3 5 6 9 7 3 2 6 5 5 5 7 9 12 12 11 11 11 10 7 6 8 8 6 7 12 15 15 14 20 21 20 23 24 22 18 17 16 15 15 14
6 11 7 9 12 8 11 9 10 8 4 3 5 3 4 5 3 1 5 3 4 7 6 6 8 11 15 17 18 16 14 11 10 0 6 8 11 10 10 12 15 15 18 19 17 15 14 11 14 16 17 14 13 14
10 12 7 4 6 7 4 5 2 6 5 4 3 5 3 5 3 10 6 7 4 3 4 8 11 13 14 14 12 14 17 16 11 6 3 8 10 10 11 10 7 8 13 12 9 9 11 15 19 22 18 14 12 9
9 1 6 9 7 9 8 7 6 6 4 7 4 1 4 5 10 4 6 6 4 6 7 10 11 12 13 15 12 12 15 15 14 13 10 7 5 9 12 12 9 9 9 9 8 11 14 15 15 14 14 11 10 10
9 6 6 5 8 6 7 4 3 5 4 5 5 6 8 8 6 2 3 8 9 9 9 8 9 10 9 6 5 5 9 14 14 15 10 7 7 7 12 12 12 12 10 8 5 7 10 9 8 7 7 9 11 12
8 8 6 6 6 8 3 4 6 5 5 6 3 3 3 5 6 11 13 12 10 7 5 6 8 9 10 2 3 3 7 14 18 14 12 9 5 5 8 8 6 5 5 4 5 5 7 8 9 10 11 14 18 20
5 7 8 5 5 2 1 3 4 6 6 7 6 8 8 8 10 10 8 8 8 8 9 8 11 15 14 10 5 5 10 13 13 11 7 3 3 5 6 7 8 9 10 11 11 10 13 16 17 18 19 23 25 28
13 7 7 5 5 7 9 8 6 6 5 7 11 11 11 11 12 14 11 9 10 10 10 10 12 14 15 13 11 10 12 14 13 11 10 10 10 11 12 13 14 16 19 20 21 22 21 21 23 26 28 31 34 34
8 5 8 5 4 14 13 6 5 4 6 6 8 10 7 8 9 7 9 14 14 15 14 13 13 12 13 13 13 13 14 15 14 14 14 14 14 15 17 19 21 25 25 25 26 27 26 28 32 33 35 37 37 36
8 6 6 7 7 8 10 5 5 4 6 6 7 7 9 8 11 10 13 17 18 16 15 16 16 16 17 16 16 17 18 18 18 18 17 17 19 21 21 21 25 27 26 26 29 30 30 30 34 35 35 35 35 34
Wind_Direction_500mb
239 235 237 236 238 237 241 248 257 262 263 259 238 238 234 240 233 233 238 223 210 218 231 209 208 198 180 186 159 147 108 144 134 181 185 204 175 212 133 164 175 164 158 186 106 119 270 155 115 180 214 163 182 184
236 232 235 233 235 239 237 239 249 255 257 274 242 230 226 232 223 219 237 238 245 245 258 246 231 221 224 222 191 171 184 157 167 172 212 131 161 130 154 207 132 226 188 182 189 206 257 182 201 211 221 201 190 187
231 229 227 229 235 226 231 234 243 259 268 282 251 231 222 230 223 212 203 212 225 236 246 262 250 223 230 228 221 173 205 186 184 175 168 132 226 142 167 230 131 241 185 199 106 240 231 228 223 235 221 214 209 193
224 224 219 219 221 225 222 226 238 252 268 283 241 211 207 217 226 237 230 194 206 194 225 243 231 233 235 224 225 217 219 197 195 184 143 170 204 192 214 181 200 176 142 169 268 282 262 267 239 235 230 227 213 201
216 210 205 206 212 220 223 233 240 245 252 282 247 207 228 230 218 232 238 229 202 203 230 227 274 232 230 232 227 221 222 201 178 160 176 212 190 155 168 102 225 184 169 178 211 224 224 250 246 245 228 228 228 232
210 201 202 207 217 218 229 240 248 254 251 277 274 241 218 212 219 221 247 240 224 217 273 199 227 229 225 224 220 212 208 194 183 166 185 220 202 195 188 233 194 198 206 209 213 240 241 248 257 237 226 230 231 241
205 199 205 212 219 227 239 244 256 263 259 275 260 224 227 221 207 196 196 205 214 211 237 221 195 203 209 210 203 203 205 204 196 176 190 180 188 186 241 248 183 214 224 226 229 237 240 226 221 198 188 198 214 236
207 207 210 219 228 229 234 242 256 260 258 271 230 207 237 217 218 215 214 163 187 192 214 234 172 156 176 165 160 181 189 200 206 184 174 163 142 174 249 255 220 230 228 225 230 235 243 244 224 217 229 233 245 243
196 205 214 223 231 235 234 238 251 254 256 262 226 207 242 221 223 218 222 217 209 201 191 210 158 178 170 162 158 161 172 176 200 200 191 159 152 216 225 160 185 212 221 227 230 237 242 244 244 238 234 251 257 252
218 225 226 229 231 230 231 237 248 248 254 257 212 184 212 205 198 196 198 212 220 219 210 235 169 159 162 161 187 140 179 197 189 210 158 205 239 240 240 232 237 226 232 235 229 232 240 246 249 248 247 254 255 254
231 229 227 231 229 224 228 238 238 237 240 260 190 187 186 180 173 189 218 189 179 241 195 192 186 135 180 148 155 215 180 170 199 192 181 188 257 39 305 241 238 249 248 243 241 239 242 249 255 254 246 254 266 270
222 226 231 233 230 228 231 233 231 220 227 223 172 135 153 181 189 197 216 156 184 206 188 153 175 162 155 169 146 176 192 178 202 142 172 202 61 349 348 311 243 243 245 245 243 248 249 248 252 256 262 267 269 267
241 238 234 231 228 226 229 227 223 223 220 161 159 135 177 16 24 160 204 235 134 279 191 166 156 153 149 179 147 161 180 204 126 168 198 205 345 351 352 344 316 310 286 272 259 257 265 262 265 269 271 271 275 275
264 241 229 219 218 223 218 224 217 183 158 154 147 107 157 170 236 183 176 182 284 277 191 141 118 151 141 165 166 153 153 120 198 173 182 280 351 342 349 352 345 338 329 314 303 300 303 285 276 276 273 272 274 277
268 238 222 219 218 205 212 167 143 154 96 97 107 140 185 112 83 17 278 287 297 338 8 85 93 125 114 110 95 125 100 145 19 83 48 348 349 347 357 359 358 353 347 335 317 308 300 299 292 275 265 263 262 265
215 268 243 232 197 179 139 131 109 86 76 81 78 89 92 71 26 145 153 81 78 41 356 350 69 113 68 51 74 37 67 68 87 69 360 342 353 357 357 357 -0 1 357 353 347 334 322 310 305 297 272 265 262 259
215 307 278 156 155 167 135 128 100 67 79 90 90 110 96 84 117 85 69 62 58 44 29 34 29 307 324 46 57 23 80 97 79 32 340 345 350 350 346 348 350 357 360 0 359 355 346 333 319 305 289 284 278 274
212 155 168 108 153 146 115 79 70 66 66 79 80 133 129 94 115 104 74 85 23 61 120 181 149 47 65 96 95 100 62 50 57 27 341 347 359 348 345 344 344 347 353 358 3 0 352 344 339 335 323 310 303 299
189 162 172 143 98 91 77 50 53 101 97 113 102 126 93 86 99 130 118 118 113 116 131 77 81 137 169 57 119 135 175 343 311 322 341 25 357 351 349 348 343 346 352 354 358 4 4 0 353 343 336 327 317 314
159 154 173 167 147 94 91 77 83 86 76 84 99 109 113 112 132 100 107 156 147 153 58 39 134 134 116 159 157 176 228 314 326 344 103 353 355 359 359 360 357 355 360 358 353 356 358 356 351 347 345 340 333 330
151 159 160 155 103 73 86 95 67 75 113 87 114 69 74 101 105 125 138 110 129 55 103 105 132 136 145 157 164 177 324 340 344 343 339 349 358 358 359 1 359 352 353 360 359 359 3 3 357 354 350 349 344 339
144 147 144 145 59 71 76 61 94 104 96 100 121 110 79 48 22 20 350 44 74 102 116 144 155 165 178 183 258 307 327 342 342 332 332 334 333 338 350 2 9 11 8 2 358 2 7 359 358 356 346 349 348 345
131 131 124 79 109 44 72 100 77 43 90 73 82 59 24 22 2 355 65 62 110 120 146 163 181 187 196 203 224 242 299 310 304 300 301 308 318 332 335 351 13 14 14 9 3 5 12 11 3 3 350 351 356 4
139 143 58 54 33 174 81 41 64 64 63 36 63 39 329 327 344 42 227 226 164 155 139 140 160 179 192 203 231 251 257 261 279 312 315 324 338 339 334 350 355 352 351 359 7 11 2 1 6 12 7 15 21 34
168 8 17 2 29 48 40 18 356 47 92 323 88 332 301 335 53 319 231 219 191 194 202 212 214 208 210 214 220 231 228 218 213 343 28 16 15 358 338 340 355 344 338 354 10 9 355 0 29 27 10 24 38 48
79 14 42 171 347 89 178 84 60 159 131 63 254 305 340 84 81 243 231 177 151 150 217 238 235 229 225 225 234 245 254 249 246 228 42 43 31 5 349 345 1 336 336 342 351 3 352 5 19 26 360 15 31 40
107 57 75 54 83 103 80 80 117 105 124 168 217 120 117 192 241 239 192 220 287 313 273 253 236 224 222 234 247 255 258 241 223 219 242 270 319 345 346 344 346 338 339 347 354 4 8 16 22 10 353 2 34 48
92 101 125 98 86 55 125 80 100 166 184 180 150 197 194 203 241 215 244 295 291 279 261 242 230 225 218 235 284 265 218 211 206 205 216 246 291 312 338 340 343 348 359 14 36 11 11 24 23 20 20 37 57 63
79 97 102 68 62 52 73 156 191 173 162 174 206 256 265 252 260 292 299 286 272 261 240 227 225 209 189 169 49 98 163 183 186 192 218 234 258 291 341 355 358 7 24 66 139 72 25 66 69 70 73 76 76 76
132 126 105 97 109 220 142 173 194 185 192 210 256 277 275 271 280 291 286 269 247 216 199 191 187 182 183 188 169 135 156 167 177 185 190 175 71 47 44 48 54 64 75 85 92 88 72 69 71 77 78 77 74 74
143 139 105 107 142 148 160 167 186 203 209 236 241 258 279 295 285 267 249 221 210 202 183 169 172 174 173 169 161 149 138 142 143 141 133 112 98 91 89 87 84 84 84 83 83 83 85 92 90 88 86 83 80 79
147 165 143 113 161 170 178 217 223 234 220 227 244 236 263 268 268 245 233 211 200 190 174 160 150 151 153 157 157 153 142 136 127 119 110 101 99 96 91 89 91 88 85 88 89 90 91 92 93 91 90 89 88 86
133 132 111 115 126 173 192 188 208 267 243 240 224 224 235 252 252 228 206 188 176 171 163 162 160 156 151 143 138 136 135 134 129 123 117 117 111 104 101 103 101 96 94 96 96 93 93 93 93 92 91 90 90 89
Wind_Speed_850mb
52 50 50 47 42 40 39 36 32 29 33 39 51 49 48 43 41 48 41 29 48 10 31 43 68 42 37 49 13 31 17 7 5 10 10 9 8 15 6 9 15 16 17 9 6 4 17 34 16 16 8 9 20 31
51 51 48 48 46 45 42 37 34 31 30 32 46 46 47 47 43 37 48 46 43 35 13 20 54 77 78 79 58 65 19 26 33 9 8 5 4 4 9 9 3 9 15 14 22 17 3 70 16 48 8 13 23 30
48 48 45 43 42 38 36 36 32 31 32 31 39 47 44 47 44 46 28 39 38 28 43 51 42 74 78 67 71 38 23 38 32 26 17 3 10 8 11 12 5 11 15 6 6 14 35 39 69 33 41 25 25 26
47 46 43 41 39 36 31 27 25 27 28 32 30 37 38 52 55 55 52 30 37 13 9 15 36 65 61 83 72 85 68 64 40 37 8 6 6 26 7 5 12 13 30 14 11 26 29 41 63 61 59 43 37 31
45 46 39 34 30 29 27 27 28 27 25 30 29 34 47 43 50 47 43 51 47 20 7 5 8 42 61 65 74 78 75 58 51 20 8 9 10 8 3 2 9 27 16 14 14 46 29 42 51 56 69 68 64 54
47 45 42 36 36 30 26 25 25 28 24 30 31 21 25 36 45 35 16 56 55 56 14 6 12 26 48 56 66 69 69 63 43 23 12 12 12 20 9 13 15 68 56 58 22 52 36 45 34 45 50 51 52 50
46 47 44 36 32 31 28 25 26 25 24 30 28 23 25 31 35 44 16 12 29 67 12 6 7 15 28 36 31 43 57 30 30 24 24 15 20 28 4 29 23 59 62 73 67 57 34 44 33 33 28 24 29 35
39 39 37 35 35 35 33 29 29 27 29 30 29 21 22 36 36 58 54 9 29 64 19 6 5 10 29 14 12 28 24 28 21 20 15 11 18 8 12 15 43 49 49 69 76 79 75 51 54 36 36 33 34 42
27 28 29 32 35 36 36 33 33 27 34 30 27 26 33 28 26 39 49 59 39 29 16 10 12 10 33 14 16 18 19 5 16 8 11 25 8 14 16 24 32 45 70 68 61 70 82 90 89 61 56 55 56 60
33 36 34 35 39 39 36 36 34 27 31 32 22 17 11 12 25 34 36 19 21 15 19 6 12 10 28 20 11 15 16 6 8 10 25 8 9 57 33 29 28 41 56 70 78 75 79 89 99 99 91 74 59 50
23 26 32 34 35 38 37 38 31 28 29 25 20 16 18 16 27 20 13 20 17 5 16 14 15 11 26 8 7 14 7 8 7 8 12 8 8 5 19 38 39 42 51 63 75 82 91 94 94 83 76 71 74 68
16 20 24 29 32 32 32 36 33 36 38 26 13 23 19 12 10 9 6 1 6 11 12 10 14 14 21 17 7 12 8 6 9 17 7 6 2 29 34 18 26 35 44 52 65 72 80 80 78 73 75 77 62 48
19 22 23 25 26 31 33 32 36 37 35 37 13 10 7 3 5 6 4 2 0 1 14 15 7 19 16 17 6 7 12 10 22 7 8 2 17 39 41 33 21 22 26 32 45 47 42 49 57 63 62 59 58 58
9 16 22 25 27 26 29 32 36 50 21 8 10 6 5 5 5 6 7 4 7 12 10 21 9 5 8 7 6 9 4 6 8 10 6 3 33 40 39 37 32 28 28 28 34 38 40 44 53 57 62 65 68 67
4 11 14 18 18 25 27 45 35 38 8 6 8 6 4 4 6 3 1 5 6 9 10 7 9 4 2 5 2 6 4 5 4 5 3 19 29 33 35 37 35 32 30 28 30 32 34 36 35 33 37 39 42 44
3 4 12 21 24 29 40 32 26 17 8 5 6 8 5 6 4 5 6 8 5 6 6 6 3 4 4 1 4 9 7 5 1 4 5 20 32 34 39 37 35 33 30 29 28 27 26 25 22 15 14 19 23 26
10 2 3 30 33 34 31 34 11 8 6 5 6 14 10 9 8 6 7 8 8 7 2 5 7 2 5 6 6 4 4 4 11 6 15 23 31 34 41 39 37 33 30 28 27 26 25 22 21 20 16 14 16 21
22 13 6 13 37 36 31 12 9 7 8 6 4 10 9 12 13 12 7 5 7 4 6 5 7 7 5 6 3 3 11 9 8 6 14 15 15 27 32 34 34 33 30 27 26 25 24 23 23 22 22 21 20 21
21 18 16 12 16 14 8 7 6 7 6 9 11 14 10 13 17 11 10 9 10 11 16 3 7 4 4 2 5 7 2 4 5 11 5 4 20 22 22 21 22 23 26 29 28 28 27 26 25 23 24 24 22 20
24 25 24 18 15 6 6 7 5 5 5 4 10 12 15 12 9 8 4 6 9 6 8 5 3 5 4 9 9 9 3 8 15 12 2 13 22 26 28 29 28 27 26 23 25 23 21 19 20 21 20 19 18 19
41 38 27 21 7 9 8 5 8 8 9 7 12 6 9 9 8 6 6 8 5 9 3 6 13 17 16 12 8 3 3 9 15 19 21 25 22 25 25 27 26 25 26 29 29 28 28 29 28 26 23 21 20 19
47 37 28 14 6 6 9 8 8 7 5 9 8 8 8 6 10 8 9 7 10 7 8 14 16 13 11 7 2 4 6 8 11 15 20 21 16 16 22 25 26 29 28 26 26 25 25 27 25 24 22 18 16 16
38 26 12 3 3 5 4 3 3 7 7 3 2 8 8 6 8 4 9 6 5 6 9 11 11 12 12 10 9 6 4 7 8 10 12 13 12 14 15 17 23 28 23 18 19 23 24 21 21 21 18 15 12 13
23 9 3 6 9 2 3 8 7 7 8 7 5 3 5 6 9 7 3 2 6 5 5 5 7 9 12 12 11 11 11 10 7 6 8 8 6 7 12 15 15 14 20 21 20 23 24 22 18 17 16 15 15 14
6 11 7 9 12 8 11 9 10 8 4 3 5 3 4 5 3 1 5 3 4 7 6 6 8 11 15 17 18 16 14 11 10 0 6 8 11 10 10 12 15 15 18 19 17 15 14 11 14 16 17 14 13 14
10 12 7 4 6 7 4 5 2 6 5 4 3 5 3 5 3 10 6 7 4 3 4 8 11 13 14 14 12 14 17 16 11 6 3 8 10 10 11 10 7 8 13 12 9 9 11 15 19 22 18 14 12 9
9 1 6 9 7 9 8 7 6 6 4 7 4 1 4 5 10 4 6 6 4 6 7 10 11 12 13 15 12 12 15 15 14 13 10 7 5 9 12 12 9 9 9 9 8 11 14 15 15 14 14 11 10 10
9 6 6 5 8 6 7 4 3 5 4 5 5 6 8 8 6 2 3 8 9 9 9 8 9 10 9 6 5 5 9 14 14 15 10 7 7 7 12 12 12 12 10 8 5 7 10 9 8 7 7 9 11 12
8 8 6 6 6 8 3 4 6 5 5 6 3 3 3 5 6 11 13 12 10 7 5 6 8 9 10 2 3 3 7 14 18 14 12 9 5 5 8 8 6 5 5 4 5 5 7 8 9 10 11 14 18 20
5 7 8 5 5 2 1 3 4 6 6 7 6 8 8 8 10 10 8 8 8 8 9 8 11 15 14 10 5 5 10 13 13 11 7 3 3 5 6 7 8 9 10 11 11 10 13 16 17 18 19 23 25 28
13 7 7 5 5 7 9 8 6 6 5 7 11 11 11 11 12 14 11 9 10 10 10 10 12 14 15 13 11 10 12 14 13 11 10 10 10 11 12 13 14 16 19 20 21 22 21 21 23 26 28 31 34 34
8 5 8 5 4 14 13 6 5 4 6 6 8 10 7 8 9 7 9 14 14 15 14 13 13 12 13 13 13 13 14 15 14 14 14 14 14 15 17 19 21 25 25 25 26 27 26 28 32 33 35 37 37 36
8 6 6 7 7 8 10 5 5 4 6 6 7 7 9 8 11 10 13 17 18 16 15 16 16 16 17 16 16 17 18 18 18 18 17 17 19 21 21 21 25 27 26 26 29 30 30 30 34 35 35 35 35 34
Wind_Direction_850mb
239 235 237 236 238 237 241 248 257 262 263 259 238 238 234 240 233 233 238 223 210 218 231 209 208 198 180 186 159 147 108 144 134 181 185 204 175 212 133 164 175 164 158 186 106 119 270 155 115 180 214 163 182 184
236 232 235 233 235 239 237 239 249 255 257 274 242 230 226 232 223 219 237 238 245 245 258 246 231 221 224 222 191 171 184 157 167 172 212 131 161 130 154 207 132 226 188 182 189 206 257 182 201 211 221 201 190 187
231 229 227 229 235 226 231 234 243 259 268 282 251 231 222 230 223 212 203 212 225 236 246 262 250 223 230 228 221 173 205 186 184 175 168 132 226 142 167 230 131 241 185 199 106 240 231 228 223 235 221 214 209 193
224 224 219 219 221 225 222 226 238 252 268 283 241 211 207 217 226 237 230 194 206 194 225 243 231 233 235 224 225 217 219 197 195 184 143 170 204 192 214 181 200 176 142 169 268 282 262 267 239 235 230 227 213 201
216 210 205 206 212 220 223 233 240 245 252 282 247 207 228 230 218 232 238 229 202 203 230 227 274 232 230 232 227 221 222 201 178 160 176 212 190 155 168 102 225 184 169 178 211 224 224 250 246 245 228 228 228 232
210 201 202 207 217 218 229 240 248 254 251 277 274 241 218 212 219 221 247 240 224 217 273 199 227 229 225 224 220 212 208 194 183 166 185 220 202 195 188 233 194 198 206 209 213 240 241 248 257 237 226 230 231 241
205 199 205 212 219 227 239 244 256 263 259 275 260 224 227 221 207 196 196 205 214 211 237 221 195 203 209 210 203 203 205 204 196 176 190 180 188 186 241 248 183 214 224 226 229 237 240 226 221 198 188 198 214 236
207 207 210 219 228 229 234 242 256 260 258 271 230 207 237 217 218 215 214 163 187 192 214 234 172 156 176 165 160 181 189 200 206 184 174 163 142 174 249 255 220 230 228 225 230 235 243 244 224 217 229 233 245 243
196 205 214 223 231 235 234 238 251 254 256 262 226 207 242 221 223 218 222 217 209 201 191 210 158 178 170 162 158 161 172 176 200 200 191 159 152 216 225 160 185 212 221 227 230 237 242 244 244 238 234 251 257 252
218 225 226 229 231 230 231 237 248 248 254 257 212 184 212 205 198 196 198 212 220 219 210 235 169 159 162 161 187 140 179 197 189 210 158 205 239 240 240 232 237 226 232 235 229 232 240 246 249 248 247 254 255 254
231 229 227 231 229 224 228 238 238 237 240 260 190 187 186 180 173 189 218 189 179 241 195 192 186 135 180 148 155 215 180 170 199 192 181 188 257 39 305 241 238 249 248 243 241 239 242 249 255 254 246 254 266 270
222 226 231 233 230 228 231 233 231 220 227 223 172 135 153 181 189 197 216 156 184 206 188 153 175 162 155 169 146 176 192 178 202 142 172 202 61 349 348 311 243 243 245 245 243 248 249 248 252 256 262 267 269 267
241 238 234 231 228 226 229 227 223 223 220 161 159 135 177 16 24 160 204 235 134 279 191 166 156 153 149 179 147 161 180 204 126 168 198 205 345 351 352 344 316 310 286 272 259 257 265 262 265 269 271 271 275 275
264 241 229 219 218 223 218 224 217 183 158 154 147 107 157 170 236 183 176 182 284 277 191 141 118 151 141 165 166 153 153 120 198 173 182 280 351 342 349 352 345 338 329 314 303 300 303 285 276 276 273 272 274 277
268 238 222 219 218 205 212 167 143 154 96 97 107 140 185 112 83 17 278 287 297 338 8 85 93 125 114 110 95 125 100 145 19 83 48 348 349 347 357 359 358 353 347 335 317 308 300 299 292 275 265 263 262 265
215 268 243 232 197 179 139 131 109 86 76 81 78 89 92 71 26 145 153 81 78 41 356 350 69 113 68 51 74 37 67 68 87 69 360 342 353 357 357 357 -0 1 357 353 347 334 322 310 305 297 272 265 262 259
215 307 278 156 155 167 135 128 100 67 79 90 90 110 96 84 117 85 69 62 58 44 29 34 29 307 324 46 57 23 80 97 79 32 340 345 350 350 346 348 350 357 360 0 359 355 346 333 319 305 289 284 278 274
212 155 168 108 153 146 115 79 70 66 66 79 80 133 129 94 115 104 74 85 23 61 120 181 149 47 65 96 95 100 62 50 57 27 341 347 359 348 345 344 344 347 353 358 3 0 352 344 339 335 323 310 303 299
189 162 172 143 98 91 77 50 53 101 97 113 102 126 93 86 99 130 118 118 113 116 131 77 81 137 169 57 119 135 175 343 311 322 341 25 357 351 349 348 343 346 352 354 358 4 4 0 353 343 336 327 317 314
159 154 173 167 147 94 91 77 83 86 76 84 99 109 113 112 132 100 107 156 147 153 58 39 134 134 116 159 157 176 228 314 326 344 103 353 355 359 359 360 357 355 360 358 353 356 358 356 351 347 345 340 333 330
151 159 160 155 103 73 86 95 67 75 113 87 114 69 74 101 105 125 138 110 129 55 103 105 132 136 145 157 164 177 324 340 344 343 339 349 358 358 359 1 359 352 353 360 359 359 3 3 357 354 350 349 344 339
144 147 144 145 59 71 76 61 94 104 96 100 121 110 79 48 22 20 350 44 74 102 116 144 155 165 178 183 258 307 327 342 342 332 332 334 333 338 350 2 9 11 8 2 358 2 7 359 358 356 346 349 348 345
131 131 124 79 109 44 72 100 77 43 90 73 82 59 24 22 2 355 65 62 110 120 146 163 181 187 196 203 224 242 299 310 304 300 301 308 318 332 335 351 13 14 14 9 3 5 12 11 3 3 350 351 356 4
139 143 58 54 33 174 81 41 64 64 63 36 63 39 329 327 344 42 227 226 164 155 139 140 160 179 192 203 231 251 257 261 279 312 315 324 338 339 334 350 355 352 351 359 7 11 2 1 6 12 7 15 21 34
168 8 17 2 29 48 40 18 356 47 92 323 88 332 301 335 53 319 231 219 191 194 202 212 214 208 210 214 220 231 228 218 213 343 28 16 15 358 338 340 355 344 338 354 10 9 355 0 29 27 10 24 38 48
79 14 42 171 347 89 178 84 60 159 131 63 254 305 340 84 81 243 231 177 151 150 217 238 235 229 225 225 234 245 254 249 246 228 42 43 31 5 349 345 1 336 336 342 351 3 352 5 19 26 360 15 31 40
107 57 75 54 83 103 80 80 117 105 124 168 217 120 117 192 241 239 192 220 287 313 273 253 236 224 222 234 247 255 258 241 223 219 242 270 319 345 346 344 346 338 339 347 354 4 8 16 22 10 353 2 34 48
92 101 125 98 86 55 125 80 100 166 184 180 150 197 194 203 241 215 244 295 291 279 261 242 230 225 218 235 284 265 218 211 206 205 216 246 291 312 338 340 343 348 359 14 36 11 11 24 23 20 20 37 57 63
79 97 102 68 62 52 73 156 191 173 162 174 206 256 265 252 260 292 299 286 272 261 240 227 225 209 189 169 49 98 163 183 186 192 218 234 258 291 341 355 358 7 24 66 139 72 25 66 69 70 73 76 76 76
132 126 105 97 109 220 142 173 194 185 192 210 256 277 275 271 280 291 286 269 247 216 199 191 187 182 183 188 169 135 156 167 177 185 190 175 71 47 44 48 54 64 75 85 92 88 72 69 71 77 78 77 74 74
143 139 105 107 142 148 160 167 186 203 209 236 241 258 279 295 285 267 249 221 210 202 183 169 172 174 173 169 161 149 138 142 143 141 133 112 98 91 89 87 84 84 84 83 83 83 85 92 90 88 86 83 80 79
147 165 143 113 161 170 178 217 223 234 220 227 244 236 263 268 268 245 233 211 200 190 174 160 150 151 153 157 157 153 142 136 127 119 110 101 99 96 91 89 91 88 85 88 89 90 91 92 93 91 90 89 88 86
133 132 111 115 126 173 192 188 208 267 243 240 224 224 235 252 252 228 206 188 176 171 163 162 160 156 151 143 138 136 135 134 129 123 117 117 111 104 101 103 101 96 94 96 96 93 93 93 93 92 91 90 90 89